Regional Weather Roundup
Issued by NWS Albany, NY

Home | Current Version | Previous Version | Graphics & Text | Print | Product List | Glossary Off
Versions: 1 2 3 4 5 6 7 8 9 10 11 12 13 14 15 16 17 18 19 20 21 22 23 24 25 26 27 28 29 30 31 32 33 34 35 36 37 38 39 40 41 42 43 44 45 46 47 48 49 50

633
ASUS41 KALY 211510
RWRALY

NEW YORK STATE HOURLY WEATHER ROUNDUP
NATIONAL WEATHER SERVICE ALBANY NY
1000 AM EST SAT JAN 21 2017

NOTE: "FAIR" INDICATES FEW OR NO CLOUDS BELOW 12,000 FEET WITH NO
SIGNIFICANT WEATHER AND/OR NO OBSTRUCTIONS TO VISIBILITY.

NYZ032-033-038>043-046>054-057>066-NYZ062>081-082-084-211600-
EAST


CITY           SKY/WX    TMP DP  RH WIND       PRES   REMARKS
ALBANY         CLOUDY    40  36  86 S8        29.86S WCI  34
GLENS FALLS    CLOUDY    38  36  92 SW3       29.84R FOG
POUGHKEEPSIE   CLOUDY    42  39  89 SW9       29.87R
NEWBURGH       PTSUNNY   43  43 100 W8        29.87R
MONTGOMERY     CLOUDY    42  40  92 SW7       29.86R FOG
WHITE PLAINS   CLOUDY    44  41  89 VRB5      29.86S FOG
ISLIP          FOG       44  43  96 SW7       29.89R VSB 1
NEW YORK CITY  CLOUDY    48  42  80 SW8       29.89R
CENTRAL PARK   CLOUDY    43  41  93 MISG      29.91R FOG
$$

NYZ005>009-017-018-044>046-055-056-211600-
CENTRAL


CITY           SKY/WX    TMP DP  RH WIND       PRES   REMARKS
FULTON         CLOUDY    46  43  89 SW6       29.81F
SYRACUSE       PTSUNNY   43  41  93 CALM      29.81F
ROME           CLOUDY    38  38 100 CALM      29.84R
ELMIRA         CLOUDY    42  40  92 CALM      29.84S FOG
BINGHAMTON     FOG       40  40 100 SW7       29.82S VSB 1/16
MONTICELLO     CLOUDY    39  39 100 W3        29.87R VSB<1/4
$$

NYZ026>034-041>043-087-211600-
NORTH


CITY           SKY/WX    TMP DP  RH WIND       PRES   REMARKS
WATERTOWN      CLOUDY    42  41  96 SW7       29.81R
FORT DRUM      NOT AVBL
OGDENSBURG     FOG       38  38  97 CALM      29.79R VSB 1/4
MASSENA        CLOUDY    35  35 100 CALM      29.80S FOG
SARANAC LAKE   FOG       36  35  96 CALM      29.74S VSB 1/2
PLATTSBURGH    CLOUDY    36  35  96 CALM      29.79S FOG
$$

NYZ001>004-010>016-019>021-085-211600-
WEST


CITY           SKY/WX    TMP DP  RH WIND       PRES   REMARKS
NIAGARA FALLS  FOG       45  42  89 CALM      29.79R VSB 1/4
BUFFALO        FOG       46  45  96 CALM      29.78S VSB 1/8
DUNKIRK        CLOUDY    50  47  89 VRB3      29.77F
JAMESTOWN      CLOUDY    46  45  93 S7        29.78F VSB<1/4
WELLSVILLE     CLOUDY    49  46  90 SW6       29.81F FOG
ROCHESTER      CLOUDY    46  45  96 CALM      29.81S FOG
PENN YAN       MOSUNNY   47  42  83 SW14      29.80F
$$

             KEY
       WCI = WIND CHILL INDEX
       VSB = VISIBILITY
       HX  = HEAT INDEX
$$




USA.gov is the U.S. government's official web portal to all federal, state and local government web resources and services.